PY2UTU-WX Weather Reports


Display with metric or nautical units.
time (UTC)temp
F
wind
direction
speed
MPH
gust
MPH
rain 1hr
in
rain 24hr
in
rain mn
in
humidity
%
barometer
mb
20260504232724 67 0 0.0 0.0 0.00 0.00 0.00 98 926.9
20260504231224 67 0 0.0 0.0 0.00 0.00 0.00 98 926.8
20260504225724 66 0 0.0 0.0 0.00 0.00 0.00 98 926.5
20260504224224 66 0 0.0 0.0 0.00 0.00 0.00 98 926.4
20260504222724 67 0 0.0 0.0 0.00 0.00 0.00 98 926.2
20260504221224 67 0 0.0 0.0 0.00 0.00 0.00 98 926.2
20260504215724 68 0 0.0 0.0 0.00 0.00 0.00 98 925.9
20260504214224 67 0 0.0 0.0 0.00 0.00 0.00 98 925.7
20260504212724 68 0 0.0 0.0 0.00 0.00 0.00 98 925.6
20260504211224 68 0 0.0 0.0 0.00 0.00 0.00 98 925.4
20260504205724 68 0 0.0 0.0 0.00 0.00 0.00 98 925.3
20260504204224 69 0 0.0 0.0 0.00 0.00 0.00 98 925.3
20260504202724 70 0 0.0 0.0 0.00 0.00 0.00 98 925.3
20260504201224 70 0 0.0 0.0 0.00 0.00 0.00 98 925.3
20260504195724 71 0 0.0 0.0 0.00 0.00 0.00 98 925.0
20260504194224 73 0 0.0 0.0 0.00 0.00 0.00 98 925.1
20260504192725 75 0 0.0 0.0 0.00 0.00 0.00 98 925.0
20260504191225 77 0 0.0 0.0 0.00 0.00 0.00 98 924.6
20260504185724 77 0 0.0 0.0 0.00 0.00 0.00 98 924.4
20260504184224 78 0 0.0 0.0 0.00 0.00 0.00 97 924.4
20260504182724 81 0 0.0 0.0 0.00 0.00 0.00 96 924.3
20260504181224 81 0 0.0 0.0 0.00 0.00 0.00 96 924.3
20260504175724 79 0 0.0 0.0 0.00 0.00 0.00 98 924.3
20260504174224 77 0 0.0 0.0 0.00 0.00 0.00 98 924.4
20260504172724 76 0 0.0 0.0 0.00 0.00 0.00 98 924.6
20260504171224 77 0 0.0 0.0 0.00 0.00 0.00 98 924.6
20260504141224 71 0 0.0 0.0 0.00 0.00 0.00 98 927.0
20260504081224 63 0 0.0 0.0 0.00 0.00 0.00 98 925.2
20260504045724 62 0 0.0 0.0 0.00 0.00 0.00 98 926.5
20260504044224 62 0 0.0 0.0 0.00 0.00 0.00 98 926.7
20260504042724 62 0 0.0 0.0 0.00 0.00 0.00 98 926.8
20260504041224 62 0 0.0 0.0 0.00 0.00 0.00 98 926.9
20260504035724 61 0 0.0 0.0 0.00 0.00 0.00 98 927.0
20260504034224 62 0 0.0 0.0 0.00 0.00 0.00 98 927.2
20260504032724 61 0 0.0 0.0 0.00 0.00 0.00 98 927.2
20260504031224 61 0 0.0 0.0 0.00 0.00 0.00 98 927.6
20260504025724 61 0 0.0 0.0 0.00 0.00 0.00 98 927.4
20260504024224 60 0 0.0 0.0 0.00 0.00 0.00 98 927.5
20260504022724 61 0 0.0 0.0 0.00 0.00 0.00 98 927.6
20260504021224 60 0 0.0 0.0 0.00 0.00 0.00 98 927.7
20260504015724 61 0 0.0 0.0 0.00 0.00 0.00 98 927.6
20260504014224 60 0 0.0 0.0 0.00 0.00 0.00 98 927.6
20260504012724 61 0 0.0 0.0 0.00 0.00 0.00 98 927.6
20260504011224 60 0 0.0 0.0 0.00 0.00 0.00 98 927.8
20260504005724 60 0 0.0 0.0 0.00 0.00 0.00 98 928.0
20260504004224 59 0 0.0 0.0 0.00 0.00 0.00 98 927.8
20260504002723 59 0 0.0 0.0 0.00 0.00 0.00 98 927.9
20260504001224 59 0 0.0 0.0 0.00 0.00 0.00 98 927.9
20260503235723 59 0 0.0 0.0 0.00 0.00 0.00 98 928.0
20260503234224 59 0 0.0 0.0 0.00 0.00 0.00 98 928.0